Погода Красный Яр

Погода Красный Яр : погода сейчас, прогноз погоды и архив. Всё, что Вы хотите узнать о погоде Красный Яр!

Хотите узнать прогноз погоды Красный Яр? Тогда Вам сюда: Погода Красный Яр

Поиск расширенной информации на нашем сайте:

Другие новости

Новости СМИ2

Главная страница сайта

Новости сайта

02.10.2013

Напоминаем, что на нашем новом сайте вы можете получить высокодетализированные прогнозы погоды по пунктам России, СНГ и мира (включающие важные для авиации метеовеличины, такие как направление и скорость ветра, видимость, явления погоды, количество и форма облачности, нижняя и верхняя граница облачности), а также ознакомиться с разнообразными материалами по авиационной метеорологии и подборкой полезных ссылок на эту тему.

Сайт Метеоцентр.Азия посвящён разработке технологий оптимизации авиаметеорологического обслуживания, включая проектирование и перспективное создание нескольких автоматизированных авиаметеорологических систем:
- система выпуска высокодетальных прогностических карт явлений погоды для нижнего воздушного пространства по России и ближнему зарубежью;
- система верификации прогнозов TAF (выпускаемых синоптиками официальных АМСГ РФ и ближнего зарубежья) и AUTOTAF (выпускаемых сайтом Метеоцентр.Азия) - выявление ошибок, онлайн-сопоставление с фактической погодой METAR, автоматическое внесение коррективов в прогнозы при резком отклонении фактической погоды от прогноза, подсчёт оправдываемости прогнозов по элементам и в целом;
- система обработки, анализа и отображения авиаметеорологической информации для применения провайдерами метеорологической информации.

Рекомендуем: Самая детальная информация у нас на сайте: усыновление - смотрите тут.

Погода Красный Яр - сегодня

Время (UTC), дата Ветер
(°,м/с) 
Видим.   Явления Облачность Т
(°С)
Тd
(°С)
f(%) Тe
(°С)
Pmin
(гПа)
dP
(гПа)
Po
(мм)
O2
(г/м3)
Тmin Tmax R s Состояние
почвы
12 22.03.17 290 (З) 20000 м    10/10 600 м кучево-дожд. 
[Cb cap]
-1.5 -5.9 72 -1  1015.7  1.9  750  304           
15 22.03.17 240 (ЮЗ) 20000 м    10/10 600 м кучево-дожд. 
[Cb cap]
-2 -5.6 76 -1  1016.5  0.7  750  305           
18 22.03.17 260 (З) 20000 м    10/10 600 м кучево-дожд. 
[Cb cap]
-2.3 -5.3 80 -2  1016.9  0.4  750  306           
21 22.03.17 260 (З) 20000 м    10/10 600 м кучево-дожд. 
[Cb cap]
-3 -4.8 87 -3  1017.3  0.4  751  306  -3.1      16  равномерный
мокрый или
старый снег
100% 
00 23.03.17 230 (ЮЗ) 20000 м    8/3 600 м верхняя 
[Cu hum|Ci fib]
+0.5 -6 62 +1  1018.1  751  303  -3.3         
03 23.03.17 220 (ЮЗ) 20000 м    8/3 600 м верхняя 
[Cu hum|Ci fib]
+2.5 -10 39 +3  1017.3  -0.7  751  301           
06 23.03.17 010 (С) 20000 м    8/6 600 м верхняя 
[Cu hum|Ci fib]
+2.8 -12.1 32 +1  1016.5  -0.8  750  300           
09 23.03.17 360 (С) 20000 м    8/3 600 м верхняя 
[Cu hum|Ci fib]
+1.2 -11.5 38 +1  1017.4  0.8  751  302    +3.7       
12 23.03.17 350 (С) 20000 м    3/3 600 м 
[Sc diur, vesp]
-1.5 -10.3 51 -1  1018.9  1.3  752  306           
15 23.03.17 тихо ()   20000 м    3/3 600 м 
[Sc diur, vesp]
-4.5 -8 76 -5  1019.3  0.3  752  309           
18 23.03.17 тихо ()   20000 м    10/10 600 м 
[Sc diur, vesp]
-4.9 -7.3 83 -5  1019.2  0.1  752  309           
21 23.03.17 тихо ()   20000 м    10/10 600 м 
[Sc diur, vesp]
-4 -6.9 80 -4  1019.6  0.5  752  308  -5.4      15  равномерный
мокрый или
старый снег
100% 
00 24.03.17 220 (ЮЗ) 20000 м    4/4 600 м 
[Cu hum]
+0.8 -6.6 58 1019.8  0.4  753  303           
03 24.03.17 120 (ЮВ) 20000 м    10/10 600 м кучево-дожд. 
[Cb cap]
+2.2 -6.7 52 +3  1018.7  -0.9  752  301           
06 24.03.17 270 (З) 20000 м    10/10 600 м кучево-дожд. 
[Cb cap]
+3.8 -7.3 44 +3  1018  -0.7  751  299           
09 24.03.17 310 (СЗ) 20000 м    9/9 600 м кучево-дожд. 
[Cb cap]
+2.8 -7.1 48 +2  1018.8  -0.7  752  301    +4.5       
12 24.03.17 тихо ()   20000 м    ясно 
-2.5 -6.5 74 -3  1020.2  1.1  753  307           
15 24.03.17 тихо ()   20000 м    ясно 
-6.2 -7.1 93 -6  1020.5  753  311           
18 24.03.17 тихо ()   20000 м    ясно 
-8.6 -9.5 93 -9  1020.6  753  314           
21 24.03.17 тихо ()   20000 м    10/10 600 м кучево-дожд. 
[Cb cap]
-6.3 -7.4 92 -6  1021  0.5  753  311  -8.8      14  равномерный
мокрый или
старый снег
100% 
00 25.03.17 тихо ()   20000 м    8/8 600 м кучево-дожд. 
[Cb cap]
-1.8 -6.2 72 -2  1020.6  0.1  753  306           
03 25.03.17 280 (З) 20000 м    6/6 600 м 
[Cu hum]
+6.3 -7.8 36 +6  1018.5  -1.6  752  297           
06 25.03.17 350 (С) 20000 м    8/8 600 м кучево-дожд. 
[Cb cap]
+5.2 -6.9 41 +5  1017.8  -1.6  751  298           
09 25.03.17 тихо ()   20000 м    9/9 600 м кучево-дожд. 
[Cb cap]
+3 -4.5 58 +3  1018.3  0.4  752  300    +7.4       
12 25.03.17 тихо ()   20000 м    3/0 средняя 
[Ac trans]
-2.6 -4.8 85 -3  1019.3  0.7  752  307           
Время (UTC), дата Ветер
(°,м/с) 
Видим.   Явления Облачность Т
(°С)
Тd
(°С)
f(%) Тe
(°С)
Pmin
(гПа)
dP
(гПа)
Po
(мм)
O2
(г/м3)
Тmin Tmax R s Состояние
почвы

Для получения пояснительной информации подведите курсор к названию столбца.

ПОГОДА Красный Яр - архив

Всё, что Вы хотите узнать о погоде Красный Яр - удобно и подробно!

Выберите нужную дату (начиная с 1 января 2015* года) и нажмите кнопку "Найти".
Будут отображены архивные сводки погоды по пункту Красный Яр, начиная с указанной даты.


Отображать данные в формате CSV (для использования в таблицах Excel)


Внимание! Наш архив погоды предназначен исключительно для личного некоммерческого использования в познавательных целях. Если Вам необходимы официальные справки о состоянии погоды (для производственных, юридических, коммерческих и т.п. целей), обращайтесь в органы Росгидромета.

*Примечание: данная дата относится к архиву по метеостанциям СССР (Россия, СНГ, Балтия).
Архив по метеостанциям Зарубежной Европы и Азии (кроме Китая) хранится 10 дней, по другим регионам земного шара (Китай, Африка, Америка, Австралия, Океания) - 1 день.

Красный Яр - район местоположения метеостанции


Название, широта, долгота, высота метеостанции:
Красный Яр 46.5°ш. 135.3°д. 130 м над ур. моря [Российская Федерация]

Дополнительная информация

В oтличие oт бoльшинства пoгoдных сайтoв мы публикуем пoдрoбную метеoинфoрмацию в детальнoм прoфессиoнальнoм фoрмате.

Характеристики температуры и влажнoсти вoздуха измеряются на высoте 2 м в тени вдали oт зданий и деревьев.
Скoрoсть ветра измеряется на высoте 10 м (на урoвне рoста челoвека скoрoсть ветра ниже в 1.5-2 раза). Если метеoстанция нахoдится в гoрoде или в лесу, тo скoрoсть ветра занижена на 2-4 м/с пo сравнению с oткрытым местoм. Скoрoсть ветра над акватoриями крупных рек и oзёр, а также на вершинах хoлмoв на 2-5 м/с выше, чем в oбычных услoвиях.
Атмoсфернoе давление в разных тoчках местнoсти мoжет значительнo oтличаться oт давления на метеoстанции, в зависимoсти oт услoвий рельефа (при пoдъёме на 10 м давление пoнижается примернo на 1 мм рт.ст.).